OBJECT DD, 66765

Orbit data source: Space-Track

You're viewing an Uncataloged Satellite

Recently launched and/or uncataloged satellites may have evolving metadata. Metadata may include but not limited to: Owner, Maufacturer, Bus, Motor, and Mission.

OBJECT DD, 66765 is a satellite in SSO that was launched on Fri, 28 Nov 2025 UTC via an FALCON 9 launch vehicle from the Air Force Western Test Range (AFWTR). Unknown objects in Earth's orbit typically refer to objects detected orbiting the Earth but have not yet been identified or cataloged. These objects could be anything from previously untracked satellites, spent rocket stages, debris from satellite collisions, or even natural meteoroids temporarily captured by Earth's gravity.

Loading next visibility...
Identifier
66765, 2025-276DD
Orbit
SSO
Country
Flag of TBDTBD
Related business
None
Manufacturer
Unknown
Mission
Operational Commercial Sigint
Bus & Motor
Unknown
Mass
Unknown
Launch date (UTC)
2025-11-28 (2 months ago)
Launch vehicle
FALCON 9
Launch site
Air Force Western Test Range (AFWTR)
Object type
Unknown
Shape & HBR
Box + 2 Pan, 0.1 m
Radar Cross Section
0.080 m²

Expand to show TLE details & history
Last TLE update: 8 hours ago

TLE from 8 hours ago
0 OBJECT DD
1 66765U 25276DD  26035.00911874  .00019249  00000-0  88418-3 0  9995
2 66765  97.4351 111.0072 0001336  62.2164 297.9207 15.20427601 10215
Epoch: 2026-02-04T00:13Z
TLE epoch observation values (Epoch: 2026-02-04T00:13:07.859Z)
Latitude
0.00004°
Longitude
-26.45741°
Altitude
507.209 km
Speed
7.611 km/s
True Right ascension
07h 24m 01s
True Declination
0° 00' 00"
Sunlit
Object was in full shadow at epoch
Visualization orbit readout
Latitude
Unknown
Longitude
Unknown
Altitude
Unknown
Speed
Unknown
Apparent Right ascension
Unknown
Apparent Declination
Unknown
Sunlit
N/A
Visualization observer readout
Local Sidereal Time
10:13:28
Azimuth
Unknown
Elevation
Unknown
Doppler factor
Unknown
Orbital elements
Apogee altitude
502.435 km
Perigee altitude
500.597 km
Semi-major axis
6,879.653 km
Eccentricity
0.00013
Inclination
97.4351°
RAAN
111.0072°
Arg. of periapsis
62.2164°
True anomaly
297.90717°
Mean anomaly
297.9207°
Eccentric anomaly
297.91394°
Mean motion
3.80359 °/min
Orbital period
94.65 mins
BSTAR
0.00088418
Loading maneuver chart data...
Computing Atmospheric mass density...
Loading historical data...
Loading historical data...
Loading historical data...
Loading historical data...
Loading historical data...
Loading historical data...
Loading historical data...

Documentation

Showing up to 5 results
|